Zurück zum Katalog

NIMBUS 2 DEB

AktivLEO
NORAD 37890·DEBRIS·🇺🇸 United States

Gestartet May 15, 1966 von Vandenberg Space Force Base

Loading…

Nächste Überflüge (nächste 24 Stunden)

TLE

AktuellSource: Space-Track

Epoche: Sep 14, 2026, 08:42 UTC

1 37890U 66040AV  26257.36315974  .00001453  00000-0  23393-2 0  9998
2 37890 100.4913 226.9582 0051351 334.0376  25.8182 13.50080881733533

Verfolge NIMBUS 2 DEB in Echtzeit mit AllMySat

Download on the App Store